Regional Weather Roundup
Issued by NWS

Home | Current Version | Previous Version | Graphics & Text | Print | Product List | Glossary On
Versions: 1 2 3 4 5 6 7 8 9 10 11 12 13 14 15 16 17 18 19 20 21 22 23 24 25 26 27 28 29 30 31 32 33 34 35 36 37 38 39 40 41 42 43 44 45 46 47 48 49 50
584
ASUS45 KBOU 281907
RWRCO

WEATHER ROUNDUP FOR COLORADO
NATIONAL WEATHER SERVICE DENVER/BOULDER CO
100 PM MDT THU APR 28 2016

NOTE: "FAIR" INDICATES FEW OR NO CLOUDS BELOW 12000 FEET WITH NO
SIGNIFICANT WEATHER AND/OR OBSTRUCTIONS TO VISIBILITY.

COZ001>005-013-030-031-282000-
...NORTHWEST COLORADO...

CITY           SKY/WX    TMP DP  RH WIND       PRES   REMARKS
CRAIG          CLOUDY    40  36  86 CALM      29.81S
HAYDEN         FAIR      37  34  87 E12       29.80S
MEEKER         PTSUNNY   48  38  68 W5        29.76F
MOUNT WERNER   NOT AVBL
STEAMBOAT SPGS CLOUDY    33  32  96 CALM      29.81F
WALDEN         CLOUDY    37  30  75 NW12      29.83S
$$

COZ006>008-011-282000-
...WEST CENTRAL VALLEYS...

CITY           SKY/WX    TMP DP  RH WIND       PRES   REMARKS
GRAND JUNCTION LGT RAIN  47  43  86 NW9       29.75R
MONTROSE       PTSUNNY   56  37  49 NW10      29.73S
EAGLE          MOSUNNY   45  37  76 NE7       29.82F
RIFLE          PTSUNNY   49  39  68 VRB3      29.76F
DELTA          NOT AVBL
NUCLA          NOT AVBL
$$

COZ017>023-064>068-282000-
...SOUTHWEST COLORADO...

CITY           SKY/WX    TMP DP  RH WIND       PRES   REMARKS
DURANGO        FAIR      56  17  21 SW16G26   29.78F
CORTEZ         PTSUNNY   57  20  23 SW20      29.75S
PAGOSA SPRINGS FAIR      54  17  23 SW17G24   29.82F
TELLURIDE      FAIR      41  27  58 SE17G23   29.84F
WOLF CREEK PAS NOT AVBL
$$

COZ009-010-012-014-032>034-037-058>063-282000-
...CENTRAL COLORADO...

CITY           SKY/WX    TMP DP  RH WIND       PRES   REMARKS
ASPEN          PTSUNNY   45  34  65 N6        29.78F
BUENA VISTA    CLOUDY    34  30  86 SE9       29.89F WCI  26
COPPER MTN     NOT AVBL
BERTHOUD PASS  CLOUDY    18   9  68 E28       29.91R WCI  -1
COTTONWOOD PAS FOG       32  32 100 E6        29.90S VSB 1/4 WCI  26
GUNNISON       FAIR      54  19  26 SW16G28   29.79S
KREMMLING      LGT RAIN  36  32  87 CALM      29.86R
LEADVILLE      LGT SNOW  30  28  92 S12       29.85R FOG     WCI  20
MONARCH PASS   PTSUNNY   32  21  64 S18G24    30.02F HAZE    WCI  20
SALIDA         CLOUDY    37  32  81 E13G20    29.97S
SUNLIGHT       CLOUDY    36  32  87 CALM      29.89S
WILKERSON PASS PTSUNNY   32  30  93 S3        29.96S
$$

COZ069>075-282000-
...SAN LUIS VALLEY/SANGRE DE CRISTO MOUNTAINS...

CITY           SKY/WX    TMP DP  RH WIND       PRES   REMARKS
ALAMOSA        PTSUNNY   55  20  25 S10G32    29.81F
LA VETA PASS   LGT SNOW  32  28  86 NE3       29.95S
SAGUACHE       FAIR      46  30  53 W9G17     29.85R
$$

COZ035-036-038>040-282000-
...NORTHERN COLORADO FRONT RANGE...

CITY           SKY/WX    TMP DP  RH WIND       PRES   REMARKS
DENVER INTL AP CLOUDY    37  29  72 E13       29.97S
DMNS CITY PARK   N/A     37  31  77 E10       29.97S
AURORA         CLOUDY    36  32  87 E12       29.97S
FRONT RANGE AP CLOUDY    36  32  87 E10G21    29.99R
ERIE MUNI ARPT LGT RAIN  38  33  83 E6        29.98S
BOULDER MUN AP DRIZZLE   37  32  81 E7        29.97S
CENTENNIAL     FLURRIES  36  31  82 E12       29.95F
BROOMFIELD     LGT SNOW  37  32  81 VRB3      29.98S
FORT COLLINS   CLOUDY    37  32  81 SE10      30.00S
LONGMONT       CLOUDY    40  33  73 E6        30.00S HAZE
$$

COZ041-046-047-076>085-087-088-282000-
...PIKES PEAK/PALMER DIVIDE AND SOUTHERN FOOTHILLS...

CITY           SKY/WX    TMP DP  RH WIND       PRES   REMARKS
COLO. SPRINGS  CLOUDY    35  29  78 SE9       29.97F WCI  28
A. F. ACADEMY  PTSUNNY   36  28  75 S10       29.94S
SCHRIEVER AFB  NOT AVBL
ELLICOTT       NOT AVBL
FALCON         LGT RAIN  33  31  92 S8        29.97S WCI  26
FORT CARSON    CLOUDY    36  31  80 SE6       29.97S
LIMON          CLOUDY    37  33  85 VRB5      29.98F
MONUMENT HILL  CLOUDY    32  30  93 SE14      29.95F WCI  22
TRINIDAD       FAIR      55  34  45 NE17G28   29.89F
$$

COZ042>045-048>051-090-091-282000-
...NORTHEAST COLORADO...

CITY           SKY/WX    TMP DP  RH WIND       PRES   REMARKS
GREELEY ARPT   CLOUDY    41  36  81 SE9       30.00S
AKRON          LGT SNOW  35  33  92 E8        29.99F FOG     WCI  29
BURLINGTON     CLOUDY    44  31  60 NE12      29.99F
WRAY           NOT AVBL
STERLING       LGT RAIN  37  32  81 CALM      30.00S
HOLYOKE        NOT AVBL
FORT MORGAN    LGT RAIN  37  34  92 SE7       30.01S
$$

COZ086-089-092>099-282000-
...SOUTHEAST COLORADO...

CITY           SKY/WX    TMP DP  RH WIND       PRES   REMARKS
PUEBLO         CLOUDY    45  29  53 SE7       29.96F
LA JUNTA       CLOUDY    50  29  44 E10       29.97F
LAMAR          CLOUDY    50  30  46 E12       29.97F
SPRINGFIELD      N/A     47  31  53 E10       29.97F
$$




USA.gov is the U.S. government's official web portal to all federal, state and local government web resources and services.